Simultaneous Nadir Overpasses (SNOs) Predictions

Prediction of SNOs over PacNW region [( 10.00, 139.50) to ( 22.70, 165.60)] between AQUA and NPP Satellites:

Table of predicted SNOs over PacNW region for the next 30.0 days since TLE Epoch: 2/13/2021
Index Date (AQUA) Time (AQUA) AQUA Lat,Lon Date (NPP) Time (NPP) NPP Lat,Lon Distance(km) Time Diff (sec)
1 02/15/2021 03:31:43 22.70, 147.51 02/15/2021 03:28:13 27.30, 144.58 590.59 210
2 02/20/2021 15:59:20 22.62, 147.49 02/20/2021 16:01:22 23.29, 144.58 306.86 122
3 02/28/2021 15:09:54 22.58, 159.84 02/28/2021 15:10:38 23.15, 157.23 274.84 44
4 03/08/2021 15:59:19 22.62, 147.50 03/08/2021 16:01:19 23.29, 144.58 307.88 120
